User: anonymous   Login
Location: Unspecified
(0.0000°N, 0.0000°E)
Time: 07:54:22
(UTC+00:00)
Language:

COSMOS 2451 - Orbit

View from above orbital plane
View from above orbital plane
View from above satellite
View from above satellite

Ground track
Ground track

The orbit data is extracted from the following two-line orbital elements,

1 35498U 09036A   17328.73923491  .00000013  00000-0  23201-4 0  9992
2 35498  82.4917 232.1849 0006495 153.4789 206.6623 12.40816501379958
Epoch (UTC): 24 November 2017 17:44:29
Eccentricity: 0.0006495
inclination: 82.4917°
perigee height: 1498 km
apogee height: 1508 km
right ascension of ascending node: 232.1849°
argument of perigee: 153.4789°
revolutions per day: 12.40816501
mean anomaly at epoch: 206.6623°
orbit number at epoch: 37995

The dashed part of the orbit path shows where the satellite is in the earth's shadow,  

DLR